Location: ????????
(55.6189°N, 38.3031°E)
Time: 04:19:51
(UTC+00:00)

STARLINK-60 - Pass Details

Date: 15 November 2019
Orbit: 416 x 424 km, 53.0° (Epoch: 15 December)

Event Time Altitude Azimuth Distance (km) Brightness Sun altitude
Exits shadow 02:38:29 38° 189° (S) 651 3.9 -19.7°
Maximum altitude 02:38:59 41° 164° (SSE) 616 4.0 -19.6°
Drops below altitude 10° 02:42:10 10° 93° (E) 1,498 7.1 -19.2°
Sets 02:44:19 0° 86° (E) 2,364 8.4 -18.9°
